Ana Sayfa
METAR-TAF:

METAR-TAF

Havaalanları :

Grant County Airport

Petersburg, Batı Virginia, Amerika Birleşik Devletleri

Enlem: 38-59N, Boylam: 079-08W, yükseklik: 293 m

Güncel hava durumu gözlemi

Rapor saat 14:15 UTC de 25 dakika önce yapıldı.
Sakin rüzgar
Sıcaklık 14°C
Nem 100%
Basınç 1020 hPa
Görüş mesafesi: 16.1 km
Açık gökyüzü

METAR: KW99 241415Z AUTO 00000KT 10SM CLR 14/14 A3013 RMK AO2 T01410141

Saat: 10:40 (14:40 UTC)


TAF: eksik

4.000'den fazla havaalanı için hava durumu gözlemleri ve tahminleri (METAR ve TAF raporları).

Kullanılabilir istasyonlar harita üzerinde sarı ve kırmızı noktalarla gösterilir.

İstasyonun adını görmek için fareyi noktanın üzerinde gezdirin.

Sonrasında hava gözlem ve tahminlerini görmek için tıklayın.

Haritayı değiştirmek için: yaklaştırmak için siyah artı işaretli yeşil düğmeye ve uzaklaştırmak için de eksi işaretli düğmeye hızla tıklayın; bitişik haritalar için yeşil okları kullanın.


METAR-TAF: